Location: Unspecified
(0.0000°N, 0.0000°E)
Time: 09:41:16
(UTC+00:00)

Envisat - Pass Details

Date: 02 June 2020
Orbit: 764 x 766 km, 98.1° (Epoch: 06 July)

Event Time Altitude Azimuth Distance (km) Brightness Sun altitude
Rises 04:54:39 0° 46° (NE) 3,216 7.6 -14.6°
Reaches altitude 10° 04:57:59 10° 70° (ENE) 2,293 6.9 -13.9°
Maximum altitude 05:00:42 15° 103° (ESE) 1,991 6.0 -13.3°
Drops below altitude 10° 05:03:25 10° 135° (SE) 2,298 5.8 -12.6°
Sets 05:06:45 0° 159° (SSE) 3,227 6.2 -11.9°
